| time (UTC) | temp F | wind direction | speed knots | gust knots | rain 1hr in | rain 24hr in | rain mn in | humidity % | barometer mb |
| 20260503230021 | 46 | 183 | 0.0 | 0.0 | 0.00 | 0.00 | 0.00 | 73 | 1005.0 |
| 20260503225520 | 46 | 177 | 0.9 | 1.7 | 0.00 | 0.00 | 0.00 | 72 | 1005.0 |
| 20260503225020 | 46 | 113 | 0.0 | 0.0 | 0.00 | 0.00 | 0.00 | 72 | 1005.0 |
| 20260503224521 | 47 | 113 | 0.9 | 0.9 | 0.00 | 0.00 | 0.00 | 71 | 1005.0 |
| 20260503224020 | 47 | 167 | 1.7 | 1.7 | 0.00 | 0.00 | 0.00 | 70 | 1005.0 |
| 20260503223520 | 47 | 148 | 0.9 | 0.9 | 0.00 | 0.00 | 0.00 | 70 | 1005.0 |
| 20260503223021 | 47 | 266 | 1.7 | 1.7 | 0.00 | 0.00 | 0.00 | 70 | 1005.0 |
| 20260503222520 | 47 | 130 | 1.7 | 1.7 | 0.00 | 0.00 | 0.00 | 71 | 1005.0 |
| 20260503222020 | 46 | 155 | 0.9 | 0.9 | 0.00 | 0.00 | 0.00 | 72 | 1005.0 |
| 20260503221521 | 46 | 167 | 0.9 | 0.9 | 0.00 | 0.00 | 0.00 | 72 | 1005.0 |
| 20260503221020 | 46 | 180 | 1.7 | 1.7 | 0.00 | 0.00 | 0.00 | 71 | 1005.0 |
| 20260503220520 | 47 | 181 | 1.7 | 1.7 | 0.00 | 0.00 | 0.00 | 69 | 1005.0 |
| 20260503220020 | 48 | 121 | 0.0 | 0.0 | 0.00 | 0.00 | 0.00 | 68 | 1005.0 |
| 20260503215520 | 48 | 148 | 0.9 | 0.9 | 0.00 | 0.00 | 0.00 | 68 | 1005.0 |
| 20260503215020 | 48 | 129 | 0.0 | 0.9 | 0.00 | 0.00 | 0.00 | 67 | 1005.0 |
| 20260503214520 | 48 | 171 | 0.9 | 1.7 | 0.00 | 0.00 | 0.00 | 67 | 1005.0 |
| 20260503214021 | 48 | 172 | 0.9 | 0.9 | 0.00 | 0.00 | 0.00 | 67 | 1005.0 |
| 20260503213527 | 48 | 201 | 0.9 | 0.9 | 0.00 | 0.00 | 0.00 | 65 | 1005.0 |
| 20260503213021 | 48 | 265 | 1.7 | 1.7 | 0.00 | 0.00 | 0.00 | 64 | 1005.0 |
| 20260503212522 | 48 | 133 | 0.0 | 0.0 | 0.00 | 0.00 | 0.00 | 67 | 1005.0 |
| 20260503212020 | 48 | 152 | 0.9 | 0.9 | 0.00 | 0.00 | 0.00 | 67 | 1005.0 |
| 20260503211520 | 49 | 180 | 1.7 | 1.7 | 0.00 | 0.00 | 0.00 | 68 | 1005.0 |
| 20260503211020 | 49 | 198 | 1.7 | 1.7 | 0.00 | 0.00 | 0.00 | 67 | 1005.0 |
| 20260503210521 | 49 | 117 | 0.0 | 0.0 | 0.00 | 0.00 | 0.00 | 65 | 1005.0 |
| 20260503210022 | 50 | 153 | 0.9 | 0.9 | 0.00 | 0.00 | 0.00 | 64 | 1005.0 |
| 20260503205521 | 50 | 138 | 0.0 | 0.0 | 0.00 | 0.00 | 0.00 | 63 | 1005.0 |
| 20260503205020 | 50 | 246 | 1.7 | 1.7 | 0.00 | 0.00 | 0.00 | 62 | 1005.0 |
| 20260503204520 | 51 | 104 | 0.0 | 0.9 | 0.00 | 0.00 | 0.00 | 61 | 1005.0 |
| 20260503204020 | 51 | 153 | 0.9 | 0.9 | 0.00 | 0.00 | 0.00 | 60 | 1005.0 |
| 20260503203520 | 51 | 170 | 0.9 | 0.9 | 0.00 | 0.00 | 0.00 | 61 | 1005.0 |
| 20260503203020 | 51 | 137 | 0.0 | 0.9 | 0.00 | 0.00 | 0.00 | 57 | 1005.0 |
| 20260503202520 | 52 | 149 | 0.9 | 0.9 | 0.00 | 0.00 | 0.00 | 55 | 1005.0 |
| 20260503202020 | 52 | 124 | 0.0 | 0.9 | 0.00 | 0.00 | 0.00 | 53 | 1005.0 |
| 20260503201520 | 52 | 97 | 0.9 | 0.9 | 0.00 | 0.00 | 0.00 | 53 | 1005.0 |
| 20260503201021 | 52 | 119 | 0.0 | 0.0 | 0.00 | 0.00 | 0.00 | 53 | 1006.0 |
| 20260503200521 | 53 | 118 | 0.0 | 0.0 | 0.00 | 0.00 | 0.00 | 52 | 1006.0 |
| 20260503200020 | 53 | 111 | 0.0 | 0.9 | 0.00 | 0.00 | 0.00 | 53 | 1006.0 |
| 20260503195521 | 53 | 122 | 0.9 | 0.9 | 0.00 | 0.00 | 0.00 | 51 | 1006.0 |
| 20260503195020 | 53 | 123 | 0.9 | 0.9 | 0.00 | 0.00 | 0.00 | 50 | 1006.0 |
| 20260503194520 | 53 | 122 | 0.9 | 0.9 | 0.00 | 0.00 | 0.00 | 50 | 1006.0 |
| 20260503194022 | 53 | 117 | 0.0 | 0.0 | 0.00 | 0.00 | 0.00 | 50 | 1006.0 |
| 20260503193520 | 53 | 107 | 0.0 | 0.0 | 0.00 | 0.00 | 0.00 | 51 | 1006.0 |
| 20260503193020 | 53 | 119 | 0.0 | 0.0 | 0.00 | 0.00 | 0.00 | 49 | 1006.0 |
| 20260503192520 | 54 | 120 | 0.0 | 0.0 | 0.00 | 0.00 | 0.00 | 49 | 1006.0 |
| 20260503192020 | 54 | 122 | 0.0 | 0.0 | 0.00 | 0.00 | 0.00 | 49 | 1006.0 |
| 20260503191523 | 54 | 122 | 0.0 | 0.0 | 0.00 | 0.00 | 0.00 | 48 | 1006.0 |
| 20260503191020 | 54 | 123 | 0.0 | 0.0 | 0.00 | 0.00 | 0.00 | 48 | 1006.0 |
| 20260503190521 | 54 | 108 | 0.0 | 0.9 | 0.00 | 0.00 | 0.00 | 48 | 1006.0 |
| 20260503190020 | 54 | 104 | 0.0 | 0.0 | 0.00 | 0.00 | 0.00 | 49 | 1006.0 |
| 20260503185520 | 54 | 144 | 0.0 | 0.0 | 0.00 | 0.00 | 0.00 | 48 | 1006.0 |
| 20260503185020 | 55 | 155 | 0.9 | 0.9 | 0.00 | 0.00 | 0.00 | 47 | 1006.0 |
| 20260503184521 | 55 | 97 | 0.0 | 0.0 | 0.00 | 0.00 | 0.00 | 48 | 1006.0 |
| 20260503184021 | 55 | 160 | 0.9 | 0.9 | 0.00 | 0.00 | 0.00 | 46 | 1006.0 |
| 20260503183520 | 55 | 134 | 0.9 | 0.9 | 0.00 | 0.00 | 0.00 | 46 | 1006.0 |
| 20260503183020 | 55 | 180 | 1.7 | 1.7 | 0.00 | 0.00 | 0.00 | 47 | 1006.0 |
| 20260503182521 | 55 | 140 | 1.7 | 1.7 | 0.00 | 0.00 | 0.00 | 48 | 1006.0 |
| 20260503182020 | 55 | 120 | 0.0 | 0.0 | 0.00 | 0.00 | 0.00 | 49 | 1006.0 |
| 20260503181520 | 55 | 111 | 0.0 | 0.0 | 0.00 | 0.00 | 0.00 | 45 | 1006.0 |
| 20260503181020 | 55 | 120 | 0.0 | 0.0 | 0.00 | 0.00 | 0.00 | 50 | 1006.0 |
| 20260503180032 | 55 | 141 | 0.9 | 0.9 | 0.00 | 0.00 | 0.00 | 49 | 1006.0 |
| 20260503175521 | 55 | 150 | 0.9 | 0.9 | 0.00 | 0.00 | 0.00 | 50 | 1006.0 |
| 20260503175020 | 56 | 137 | 0.0 | 0.9 | 0.00 | 0.00 | 0.00 | 48 | 1006.0 |
| 20260503174522 | 56 | 160 | 0.9 | 0.9 | 0.00 | 0.00 | 0.00 | 46 | 1006.0 |
| 20260503174020 | 57 | 124 | 0.0 | 0.0 | 0.00 | 0.00 | 0.00 | 43 | 1006.0 |
| 20260503173520 | 57 | 119 | 0.0 | 0.0 | 0.00 | 0.00 | 0.00 | 43 | 1006.0 |
| 20260503173020 | 58 | 133 | 0.9 | 0.9 | 0.00 | 0.00 | 0.00 | 42 | 1006.0 |
| 20260503172520 | 58 | 121 | 0.9 | 1.7 | 0.00 | 0.00 | 0.00 | 42 | 1006.0 |
| 20260503172020 | 58 | 143 | 0.0 | 0.0 | 0.00 | 0.00 | 0.00 | 41 | 1006.0 |
| 20260503171521 | 58 | 269 | 0.9 | 1.7 | 0.00 | 0.00 | 0.00 | 40 | 1006.0 |
| 20260503171021 | 59 | 122 | 0.0 | 0.0 | 0.00 | 0.00 | 0.00 | 39 | 1006.0 |
| 20260503170521 | 59 | 222 | 0.9 | 0.9 | 0.00 | 0.00 | 0.00 | 39 | 1006.0 |
| 20260503150521 | 63 | 275 | 1.7 | 1.7 | 0.00 | 0.00 | 0.00 | 29 | 1006.0 |
| 20260503131020 | 67 | 46 | 0.9 | 0.9 | 0.00 | 0.00 | 0.00 | 25 | 1008.0 |
| 20260503130520 | 67 | 90 | 0.0 | 2.6 | 0.00 | 0.00 | 0.00 | 24 | 1008.0 |
| 20260503110521 | 67 | 165 | 1.7 | 1.7 | 0.00 | 0.00 | 0.00 | 26 | 1009.0 |
| 20260503081520 | 62 | 195 | 2.6 | 5.2 | 0.00 | 0.00 | 0.00 | 30 | 1011.0 |
| 20260503081020 | 63 | 140 | 1.7 | 2.6 | 0.00 | 0.00 | 0.00 | 28 | 1011.0 |
| 20260503080520 | 61 | 254 | 2.6 | 2.6 | 0.00 | 0.00 | 0.00 | 28 | 1011.0 |
| 20260503072521 | 59 | 205 | 5.2 | 5.2 | 0.00 | 0.00 | 0.00 | 30 | 1011.0 |
| 20260503072021 | 60 | 185 | 3.5 | 5.2 | 0.00 | 0.00 | 0.00 | 31 | 1011.0 |
| 20260503071521 | 60 | 282 | 0.9 | 0.9 | 0.00 | 0.00 | 0.00 | 30 | 1011.0 |
| 20260503071020 | 59 | 289 | 3.5 | 4.3 | 0.00 | 0.00 | 0.00 | 35 | 1011.0 |
| 20260503070520 | 59 | 155 | 2.6 | 2.6 | 0.00 | 0.00 | 0.00 | 32 | 1011.0 |
| 20260503055020 | 52 | 155 | 0.9 | 1.7 | 0.00 | 0.00 | 0.00 | 56 | 1011.0 |
| 20260503054520 | 52 | 132 | 0.9 | 0.9 | 0.00 | 0.00 | 0.00 | 54 | 1011.0 |
| 20260503054020 | 50 | 130 | 0.9 | 0.9 | 0.00 | 0.00 | 0.00 | 58 | 1011.0 |
| 20260503053520 | 50 | 134 | 0.9 | 0.9 | 0.00 | 0.00 | 0.00 | 57 | 1011.0 |
| 20260503053020 | 50 | 113 | 0.0 | 0.0 | 0.00 | 0.00 | 0.00 | 59 | 1011.0 |
| 20260503052520 | 49 | 139 | 0.9 | 0.9 | 0.00 | 0.00 | 0.00 | 59 | 1011.0 |
| 20260503052020 | 47 | 114 | 0.9 | 0.9 | 0.00 | 0.00 | 0.00 | 62 | 1011.0 |
| 20260503051520 | 46 | 13 | 0.9 | 0.9 | 0.00 | 0.00 | 0.00 | 61 | 1011.0 |
| 20260503051021 | 46 | 134 | 0.9 | 0.9 | 0.00 | 0.00 | 0.00 | 63 | 1011.0 |
| 20260503050520 | 45 | 136 | 0.9 | 0.9 | 0.00 | 0.00 | 0.00 | 64 | 1011.0 |
| 20260503050020 | 44 | 173 | 0.9 | 0.9 | 0.00 | 0.00 | 0.00 | 65 | 1011.0 |
| 20260503045522 | 44 | 165 | 0.9 | 0.9 | 0.00 | 0.00 | 0.00 | 66 | 1011.0 |
| 20260503045020 | 44 | 160 | 0.9 | 0.9 | 0.00 | 0.00 | 0.00 | 66 | 1011.0 |
| 20260503044521 | 42 | 149 | 0.9 | 0.9 | 0.00 | 0.00 | 0.00 | 69 | 1011.0 |
| 20260503044021 | 41 | 150 | 1.7 | 1.7 | 0.00 | 0.00 | 0.00 | 71 | 1011.0 |
| 20260503043521 | 40 | 141 | 0.9 | 0.9 | 0.00 | 0.00 | 0.00 | 72 | 1011.0 |
| 20260503043020 | 40 | 137 | 0.9 | 0.9 | 0.00 | 0.00 | 0.00 | 72 | 1011.0 |
| 20260503042520 | 40 | 161 | 1.7 | 1.7 | 0.00 | 0.00 | 0.00 | 72 | 1011.0 |
| 20260503042020 | 40 | 123 | 0.0 | 0.0 | 0.00 | 0.00 | 0.00 | 74 | 1011.0 |
| 20260503041520 | 39 | 141 | 0.9 | 0.9 | 0.00 | 0.00 | 0.00 | 75 | 1011.0 |
| 20260503041020 | 39 | 155 | 0.9 | 0.9 | 0.00 | 0.00 | 0.00 | 76 | 1011.0 |
| 20260503040038 | 38 | 142 | 0.9 | 0.9 | 0.00 | 0.00 | 0.00 | 78 | 1011.0 |
| 20260503035521 | 38 | 159 | 0.9 | 0.9 | 0.00 | 0.00 | 0.00 | 78 | 1011.0 |
| 20260503035020 | 38 | 126 | 0.0 | 0.0 | 0.00 | 0.00 | 0.00 | 79 | 1011.0 |
| 20260503034521 | 37 | 131 | 0.0 | 0.0 | 0.00 | 0.00 | 0.00 | 80 | 1011.0 |
| 20260503034020 | 37 | 140 | 0.0 | 0.0 | 0.00 | 0.00 | 0.00 | 81 | 1011.0 |
| 20260503033520 | 37 | 120 | 0.0 | 0.0 | 0.00 | 0.00 | 0.00 | 82 | 1011.0 |
| 20260503033020 | 36 | 115 | 0.0 | 0.0 | 0.00 | 0.00 | 0.00 | 84 | 1011.0 |
| 20260503032520 | 36 | 130 | 0.0 | 0.0 | 0.00 | 0.00 | 0.00 | 85 | 1011.0 |
| 20260503032020 | 35 | 121 | 0.0 | 0.0 | 0.00 | 0.00 | 0.00 | 86 | 1011.0 |
| 20260503031521 | 34 | 119 | 0.0 | 0.0 | 0.00 | 0.00 | 0.00 | 87 | 1011.0 |
| 20260503031021 | 34 | 120 | 0.0 | 0.0 | 0.00 | 0.00 | 0.00 | 87 | 1011.0 |
| 20260503030520 | 34 | 174 | 1.7 | 1.7 | 0.00 | 0.00 | 0.00 | 87 | 1011.0 |
| 20260503030020 | 34 | 163 | 0.9 | 0.9 | 0.00 | 0.00 | 0.00 | 88 | 1010.0 |
| 20260503025520 | 34 | 152 | 0.9 | 0.9 | 0.00 | 0.00 | 0.00 | 88 | 1010.0 |
| 20260503025020 | 34 | 165 | 0.9 | 0.9 | 0.00 | 0.00 | 0.00 | 88 | 1010.0 |
| 20260503024520 | 34 | 158 | 1.7 | 1.7 | 0.00 | 0.00 | 0.00 | 88 | 1010.0 |
| 20260503024020 | 34 | 157 | 0.9 | 0.9 | 0.00 | 0.00 | 0.00 | 88 | 1010.0 |
| 20260503023520 | 34 | 148 | 0.9 | 1.7 | 0.00 | 0.00 | 0.00 | 88 | 1010.0 |
| 20260503023021 | 34 | 178 | 1.7 | 1.7 | 0.00 | 0.00 | 0.00 | 88 | 1010.0 |
| 20260503022520 | 34 | 152 | 0.9 | 0.9 | 0.00 | 0.00 | 0.00 | 88 | 1010.0 |
| 20260503022020 | 33 | 169 | 0.9 | 0.9 | 0.00 | 0.00 | 0.00 | 87 | 1010.0 |
| 20260503021521 | 34 | 176 | 1.7 | 1.7 | 0.00 | 0.00 | 0.00 | 87 | 1010.0 |
| 20260503021020 | 34 | 173 | 1.7 | 2.6 | 0.00 | 0.00 | 0.00 | 87 | 1010.0 |
| 20260503020521 | 35 | 159 | 0.9 | 0.9 | 0.00 | 0.00 | 0.00 | 86 | 1010.0 |
| 20260503020021 | 35 | 161 | 0.9 | 0.9 | 0.00 | 0.00 | 0.00 | 86 | 1010.0 |
| 20260503015520 | 35 | 270 | 0.9 | 0.9 | 0.00 | 0.00 | 0.00 | 87 | 1010.0 |
| 20260503015020 | 35 | 160 | 0.9 | 0.9 | 0.00 | 0.00 | 0.00 | 86 | 1010.0 |
| 20260503014520 | 35 | 184 | 1.7 | 1.7 | 0.00 | 0.00 | 0.00 | 84 | 1010.0 |
| 20260503014020 | 36 | 145 | 0.9 | 0.9 | 0.00 | 0.00 | 0.00 | 83 | 1010.0 |
| 20260503013520 | 36 | 263 | 1.7 | 1.7 | 0.00 | 0.00 | 0.00 | 84 | 1010.0 |
| 20260503013020 | 36 | 180 | 0.9 | 0.9 | 0.00 | 0.00 | 0.00 | 84 | 1010.0 |
| 20260503012520 | 36 | 96 | 1.7 | 1.7 | 0.00 | 0.00 | 0.00 | 84 | 1010.0 |
| 20260503012020 | 35 | 149 | 0.9 | 0.9 | 0.00 | 0.00 | 0.00 | 84 | 1010.0 |
| 20260503011521 | 36 | 173 | 1.7 | 1.7 | 0.00 | 0.00 | 0.00 | 84 | 1010.0 |
| 20260503011020 | 36 | 146 | 0.9 | 0.9 | 0.00 | 0.00 | 0.00 | 83 | 1010.0 |
| 20260503010521 | 36 | 169 | 0.9 | 1.7 | 0.00 | 0.00 | 0.00 | 83 | 1010.0 |
| 20260503010020 | 36 | 162 | 1.7 | 1.7 | 0.00 | 0.00 | 0.00 | 83 | 1010.0 |
| 20260503005520 | 36 | 179 | 0.9 | 1.7 | 0.00 | 0.00 | 0.00 | 83 | 1010.0 |
| 20260503005020 | 36 | 181 | 1.7 | 1.7 | 0.00 | 0.00 | 0.00 | 82 | 1010.0 |
| 20260503004522 | 36 | 156 | 0.9 | 0.9 | 0.00 | 0.00 | 0.00 | 82 | 1010.0 |
| 20260503004020 | 36 | 132 | 0.0 | 0.0 | 0.00 | 0.00 | 0.00 | 82 | 1010.0 |
| 20260503003520 | 36 | 130 | 0.9 | 0.9 | 0.00 | 0.00 | 0.00 | 82 | 1011.0 |
| 20260503003020 | 36 | 167 | 0.9 | 1.7 | 0.00 | 0.00 | 0.00 | 81 | 1011.0 |
| 20260503002520 | 36 | 152 | 0.9 | 0.9 | 0.00 | 0.00 | 0.00 | 81 | 1011.0 |
| 20260503002020 | 36 | 222 | 0.9 | 0.9 | 0.00 | 0.00 | 0.00 | 81 | 1010.0 |
| 20260503001520 | 36 | 198 | 1.7 | 1.7 | 0.00 | 0.00 | 0.00 | 81 | 1010.0 |
| 20260503001021 | 36 | 174 | 1.7 | 1.7 | 0.00 | 0.00 | 0.00 | 81 | 1011.0 |
| 20260503000520 | 36 | 124 | 0.0 | 0.9 | 0.00 | 0.00 | 0.00 | 81 | 1011.0 |
| 20260503000020 | 37 | 130 | 0.9 | 0.9 | 0.00 | 0.00 | 0.00 | 81 | 1011.0 |
| 20260502235520 | 37 | 157 | 0.9 | 0.9 | 0.00 | 0.00 | 0.00 | 80 | 1011.0 |
| 20260502235020 | 37 | 125 | 0.0 | 0.9 | 0.00 | 0.00 | 0.00 | 81 | 1011.0 |
| 20260502234520 | 37 | 155 | 0.9 | 0.9 | 0.00 | 0.00 | 0.00 | 81 | 1011.0 |
| 20260502234020 | 37 | 265 | 0.9 | 0.9 | 0.00 | 0.00 | 0.00 | 81 | 1011.0 |
| 20260502233520 | 37 | 143 | 0.9 | 0.9 | 0.00 | 0.00 | 0.00 | 81 | 1011.0 |
| 20260502233020 | 37 | 133 | 0.9 | 0.9 | 0.00 | 0.00 | 0.00 | 80 | 1011.0 |
| 20260502232520 | 37 | 142 | 0.9 | 0.9 | 0.00 | 0.00 | 0.00 | 79 | 1011.0 |
| 20260502232021 | 38 | 128 | 0.9 | 0.9 | 0.00 | 0.00 | 0.00 | 78 | 1011.0 |
| 20260502231520 | 38 | 242 | 0.9 | 1.7 | 0.00 | 0.00 | 0.00 | 78 | 1011.0 |
| 20260502231020 | 38 | 272 | 2.6 | 2.6 | 0.00 | 0.00 | 0.00 | 79 | 1011.0 |
| 20260502230520 | 38 | 11 | 2.6 | 2.6 | 0.00 | 0.00 | 0.00 | 79 | 1011.0 |